EA2RCU-15 Weather Reports


time (UTC)temp
F
wind
direction
speed
knots
gust
knots
rain 1hr
in
rain 24hr
in
rain mn
in
humidity
%
barometer
mb
20260510205005 55 49 0.0 0.0 0.00 0.39 0.39 76 994.0
20260510204505 55 49 0.0 0.0 0.00 0.39 0.39 76 994.0
20260510204005 55 49 0.0 0.0 0.00 0.39 0.39 76 995.0
20260510203505 55 49 0.0 0.0 0.00 0.39 0.39 75 995.0
20260510203006 55 49 0.0 0.0 0.00 0.39 0.39 75 995.0
20260510202505 55 49 0.0 0.0 0.00 0.39 0.39 75 994.0
20260510202005 55 49 0.0 0.0 0.00 0.39 0.39 75 994.0
20260510201505 55 49 0.0 0.0 0.00 0.39 0.39 74 994.0
20260510201006 56 49 0.0 0.0 0.00 0.39 0.39 73 993.0
20260510200506 56 49 0.0 0.0 0.00 0.39 0.39 74 993.0
20260510200005 56 49 0.0 0.0 0.00 0.39 0.39 74 993.0
20260510195505 56 49 0.0 0.0 0.00 0.39 0.39 73 993.0
20260510195006 56 49 0.0 0.0 0.00 0.39 0.39 73 993.0
20260510194505 57 49 0.0 0.0 0.00 0.39 0.39 72 993.0
20260510194006 57 49 0.0 0.0 0.00 0.39 0.39 71 993.0
20260510193506 58 49 0.0 0.0 0.00 0.39 0.39 71 993.0
20260510193006 58 49 0.0 0.0 0.00 0.39 0.39 70 993.0
20260510192506 58 49 0.0 0.0 0.00 0.39 0.39 69 992.0
20260510192005 58 49 0.0 0.0 0.00 0.39 0.39 68 992.0
20260510191505 59 49 0.0 0.0 0.00 0.39 0.39 68 992.0
20260510191005 59 49 0.0 0.0 0.00 0.39 0.39 68 992.0
20260510190505 59 49 0.0 0.0 0.00 0.39 0.39 68 992.0
20260510190005 60 49 0.0 0.0 0.00 0.39 0.39 66 992.0
20260510185505 61 59 0.0 0.0 0.00 0.39 0.39 64 992.0
20260510185005 61 79 0.0 0.0 0.00 0.39 0.39 60 992.0
20260510184505 62 79 0.0 0.0 0.00 0.39 0.39 57 992.0
20260510184005 63 78 0.0 0.0 0.00 0.39 0.39 55 992.0
20260510183505 64 92 0.0 0.0 0.00 0.39 0.39 51 992.0
20260510183005 65 88 0.0 0.0 0.00 0.39 0.39 45 992.0
20260510182505 68 35 0.0 0.0 0.00 0.39 0.39 39 992.0
20260510182005 71 35 0.0 0.0 0.00 0.39 0.39 34 992.0
20260510181505 74 35 0.0 0.0 0.00 0.39 0.39 32 992.0
20260510181005 74 35 0.0 0.0 0.04 0.39 0.39 32 992.0
20260510180505 74 35 0.0 0.0 0.04 0.39 0.39 33 992.0
20260510180005 72 50 0.0 0.0 0.04 0.39 0.39 37 992.0
20260510175505 68 83 0.0 1.7 0.04 0.39 0.39 44 991.0
20260510175005 65 318 0.9 2.6 0.04 0.39 0.39 36 991.0
20260510174505 65 335 0.0 5.2 0.04 0.39 0.39 34 991.0
20260510174005 67 21 0.0 4.3 0.04 0.39 0.39 31 992.0
20260510173505 70 140 0.9 6.1 0.04 0.39 0.39 27 992.0
20260510173006 72 354 0.0 7.8 0.04 0.39 0.39 31 992.0
20260510172506 68 352 0.9 7.8 0.04 0.39 0.39 34 992.0
20260510172005 66 67 1.7 6.1 0.04 0.39 0.39 43 992.0
20260510171505 62 53 0.9 6.1 0.04 0.55 0.39 61 992.0
20260510171005 63 98 0.0 0.0 0.00 0.51 0.35 66 991.0
20260510170505 64 98 0.0 2.6 0.00 0.51 0.35 64 991.0
20260510170005 65 28 0.0 0.0 0.00 0.51 0.35 56 991.0
20260510165505 65 30 0.0 0.0 0.00 0.51 0.35 55 991.0
20260510165005 65 30 0.0 0.0 0.00 0.51 0.35 54 991.0
20260510164505 65 35 0.0 0.0 0.00 0.51 0.35 54 991.0
20260510164005 65 15 0.0 0.0 0.00 0.51 0.35 57 991.0
20260510163505 65 15 0.0 0.0 0.00 0.51 0.35 58 991.0
20260510163005 65 27 0.0 0.0 0.00 0.51 0.35 58 991.0
20260510162505 66 318 0.0 0.0 0.00 0.51 0.35 53 991.0
20260510162005 66 319 0.0 0.0 0.00 0.51 0.35 48 991.0
20260510161505 66 318 0.0 0.0 0.00 0.51 0.35 47 991.0
20260510161005 66 319 0.0 0.0 0.00 0.51 0.35 45 991.0
20260510160505 67 319 0.0 0.0 0.00 0.51 0.35 44 991.0
20260510160005 68 319 0.0 0.0 0.00 0.51 0.35 43 991.0
20260510155505 69 319 0.0 0.0 0.00 0.51 0.35 40 991.0
20260510155005 69 318 0.0 0.0 0.00 0.51 0.35 38 991.0
20260510154505 70 318 0.0 1.7 0.00 0.51 0.35 36 991.0
20260510154005 71 308 0.0 2.6 0.00 0.51 0.35 35 991.0
20260510153505 70 337 0.0 0.0 0.00 0.51 0.35 39 991.0
20260510153005 69 337 0.0 0.0 0.00 0.51 0.35 42 991.0
20260510152505 68 338 0.0 0.0 0.00 0.51 0.35 43 991.0
20260510152005 68 338 0.0 0.0 0.00 0.51 0.35 42 991.0
20260510151505 68 338 0.0 0.0 0.00 0.51 0.35 40 991.0
20260510151005 69 337 0.0 0.0 0.00 0.51 0.35 39 991.0
20260510150505 69 337 0.0 0.0 0.00 0.51 0.35 40 991.0
20260510150005 68 337 0.0 0.0 0.00 0.51 0.35 41 991.0
20260510145505 68 337 0.0 0.0 0.00 0.51 0.35 41 991.0
20260510145005 68 337 0.0 0.0 0.00 0.51 0.35 43 991.0
20260510144505 66 337 0.0 2.6 0.00 0.51 0.35 43 991.0
20260510144005 67 337 0.0 2.6 0.00 0.51 0.35 40 991.0
20260510143505 67 337 0.0 0.0 0.00 0.51 0.35 40 991.0
20260510143005 68 337 0.0 0.0 0.00 0.51 0.35 40 991.0
20260510142505 69 338 0.0 0.0 0.00 0.51 0.35 43 992.0
20260510142005 69 337 0.0 0.0 0.00 0.51 0.35 43 992.0
20260510141505 69 337 0.0 0.0 0.00 0.51 0.35 45 992.0
20260510141005 68 337 0.0 0.0 0.00 0.51 0.35 47 1042.0
20260510140505 67 337 0.0 0.0 0.00 0.51 0.35 48 1042.0
20260510140005 67 338 0.0 0.0 0.00 0.51 0.35 49 1042.0
20260510135504 66 337 0.0 0.0 0.00 0.51 0.35 50 992.0
20260510135005 67 338 0.0 0.0 0.00 0.51 0.35 51 992.0
20260510134505 66 337 0.0 0.0 0.00 0.51 0.35 50 992.0
20260510134005 66 338 0.0 0.0 0.00 0.51 0.35 56 992.0
20260510133505 66 337 0.0 0.0 0.00 0.51 0.35 65 992.0
20260510133005 64 337 0.0 0.0 0.00 0.51 0.35 67 992.0
20260510132505 62 337 0.0 0.0 0.28 0.51 0.35 69 993.0
20260510132006 61 337 0.0 0.0 0.35 0.51 0.35 68 993.0
20260510131505 61 337 0.0 0.0 0.35 0.51 0.35 69 993.0
20260510131005 60 337 0.0 0.0 0.35 0.51 0.35 69 994.0
20260510130505 59 337 0.0 0.0 0.35 0.51 0.35 67 994.0
20260510130005 59 337 0.0 0.0 0.35 0.51 0.35 68 994.0
20260510125505 59 10 0.0 0.0 0.35 0.51 0.35 73 993.0
20260510125005 58 10 0.0 0.0 0.35 0.51 0.35 72 993.0
20260510124505 57 77 0.9 5.2 0.35 0.51 0.35 72 993.0
20260510124005 56 94 0.9 5.2 0.35 0.51 0.35 70 994.0
20260510123505 56 336 2.6 7.0 0.35 0.51 0.35 69 994.0
20260510123005 58 34 4.3 8.7 0.35 0.51 0.35 59 994.0
20260510122505 62 107 4.3 11.3 0.08 0.24 0.08 45 991.0
20260510122005 68 358 0.9 10.4 0.00 0.16 0.00 28 991.0
20260510121505 70 134 0.0 0.0 0.00 0.16 0.00 26 991.0
20260510121005 70 134 0.0 0.0 0.00 0.16 0.00 25 992.0
20260510120505 71 133 0.0 0.0 0.00 0.16 0.00 24 992.0
20260510120005 71 133 0.0 4.3 0.00 0.16 0.00 25 992.0
20260510115504 71 102 0.0 0.0 0.00 0.16 0.00 24 992.0
20260510115005 72 102 0.0 0.0 0.00 0.16 0.00 23 992.0
20260510114504 72 102 0.0 0.0 0.00 0.16 0.00 24 992.0
20260510114005 72 102 0.0 0.0 0.00 0.16 0.00 24 991.0
20260510113505 72 102 0.0 0.0 0.00 0.16 0.00 24 991.0
20260510113005 72 103 0.0 0.0 0.00 0.16 0.00 23 991.0
20260510112504 72 103 0.0 0.0 0.00 0.16 0.00 23 992.0
20260510112005 72 101 0.0 0.0 0.00 0.16 0.00 23 992.0
20260510111505 72 322 0.0 2.6 0.00 0.16 0.00 23 992.0
20260510111005 73 88 0.0 0.0 0.00 0.16 0.00 23 992.0
20260510110504 73 88 0.0 0.0 0.00 0.16 0.00 23 992.0
20260510110005 72 298 0.0 0.0 0.00 0.16 0.00 23 992.0
20260510105505 72 299 0.0 2.6 0.00 0.16 0.00 23 992.0
20260510105004 72 136 0.0 0.0 0.00 0.16 0.00 23 992.0
20260510104505 72 136 0.0 5.2 0.00 0.16 0.00 23 992.0
20260510104005 73 304 0.0 1.7 0.00 0.16 0.00 23 992.0
20260510103505 74 304 0.0 1.7 0.00 0.16 0.00 22 992.0
20260510103005 74 313 0.0 1.7 0.00 0.16 0.00 23 992.0
20260510102505 73 65 0.0 1.7 0.00 0.16 0.00 23 992.0
20260510102004 72 79 0.0 2.6 0.00 0.16 0.00 24 992.0
20260510101505 72 286 0.0 2.6 0.00 0.16 0.00 24 992.0
20260510101004 71 290 0.0 2.6 0.00 0.16 0.00 25 992.0
20260510100505 70 250 0.0 2.6 0.00 0.16 0.00 25 992.0
20260510100005 71 320 0.0 1.7 0.00 0.16 0.00 26 992.0
20260510095504 70 294 0.0 2.6 0.00 0.16 0.00 27 993.0
20260510095005 70 294 0.0 2.6 0.00 0.16 0.00 26 993.0
20260510094504 71 293 0.0 2.6 0.00 0.16 0.00 27 993.0
20260510094005 71 310 0.0 2.6 0.00 0.16 0.00 27 993.0
20260510093505 71 83 0.0 1.7 0.00 0.16 0.00 27 993.0
20260510093005 70 245 0.0 2.6 0.00 0.16 0.00 28 993.0
20260510092505 71 260 0.0 1.7 0.00 0.16 0.00 28 993.0
20260510092005 70 227 0.0 0.0 0.00 0.16 0.00 29 993.0
20260510091504 69 274 0.0 1.7 0.00 0.16 0.00 29 993.0
20260510091005 69 248 0.0 1.7 0.00 0.16 0.00 29 993.0
20260510090505 70 220 0.0 2.6 0.00 0.16 0.00 27 993.0
20260510090005 70 293 0.0 2.6 0.00 0.16 0.00 28 993.0
20260510085504 69 293 0.0 1.7 0.00 0.16 0.00 29 993.0
20260510085005 69 279 0.0 2.6 0.00 0.16 0.00 28 993.0
20260510084504 69 105 0.0 2.6 0.00 0.16 0.00 29 993.0
20260510084005 69 271 0.0 2.6 0.00 0.16 0.00 32 993.0
20260510083505 68 177 0.9 2.6 0.00 0.16 0.00 32 993.0
20260510083005 68 134 0.0 5.2 0.00 0.16 0.00 33 993.0
20260510082505 68 282 0.0 2.6 0.00 0.16 0.00 33 993.0
20260510082005 67 115 0.9 5.2 0.00 0.16 0.00 34 993.0
20260510081505 67 250 0.0 1.7 0.00 0.16 0.00 34 993.0
20260510081005 66 133 0.0 2.6 0.00 0.16 0.00 35 993.0
20260510080505 65 326 0.0 0.0 0.00 0.16 0.00 36 993.0
20260510080004 65 82 1.7 4.3 0.00 0.16 0.00 36 993.0
20260510075505 65 311 0.0 2.6 0.00 0.16 0.00 36 993.0
20260510075004 65 193 0.0 1.7 0.00 0.16 0.00 37 993.0
20260510074505 64 162 0.0 1.7 0.00 0.16 0.00 40 993.0
20260510074005 63 220 0.0 1.7 0.00 0.16 0.00 42 992.0
20260510073504 63 100 0.0 0.0 0.00 0.16 0.00 45 992.0
20260510073004 62 100 0.0 0.0 0.00 0.16 0.00 49 992.0
20260510072505 61 101 0.0 0.0 0.00 0.16 0.00 54 993.0
20260510072005 60 101 0.0 0.0 0.00 0.16 0.00 59 993.0
20260510071505 60 100 0.0 0.0 0.00 0.16 0.00 61 993.0
20260510071005 59 100 0.0 0.0 0.00 0.16 0.00 65 993.0
20260510070505 59 100 0.0 0.0 0.00 0.16 0.00 66 993.0
20260510070005 58 101 0.0 0.0 0.00 0.16 0.00 68 993.0
20260510065505 58 101 0.0 0.0 0.00 0.16 0.00 68 993.0
20260510065005 58 101 0.0 0.0 0.00 0.16 0.00 72 993.0
20260510064505 57 100 0.0 0.0 0.00 0.16 0.00 73 993.0
20260510064005 57 101 0.0 0.0 0.00 0.16 0.00 73 992.0
20260510063504 56 101 0.0 0.0 0.00 0.16 0.00 73 992.0
20260510063005 56 101 0.0 0.0 0.00 0.16 0.00 73 992.0
20260510062504 56 100 0.0 0.0 0.00 0.16 0.00 74 992.0
20260510062004 56 100 0.0 0.0 0.00 0.16 0.00 74 992.0
20260510061505 55 100 0.0 0.0 0.00 0.16 0.00 75 992.0
20260510061005 55 100 0.0 0.0 0.00 0.16 0.00 75 992.0
20260510060504 55 100 0.0 0.0 0.00 0.16 0.00 75 992.0
20260510060006 55 100 0.0 0.0 0.00 0.16 0.00 76 992.0
20260510055506 54 99 0.0 0.0 0.00 0.16 0.00 75 992.0
20260510055005 54 112 0.0 0.0 0.00 0.16 0.00 76 992.0
20260510054505 54 105 0.0 0.0 0.00 0.16 0.00 76 992.0
20260510054004 54 102 0.0 0.0 0.00 0.16 0.00 76 992.0
20260510053504 54 285 0.0 0.0 0.00 0.16 0.00 75 992.0
20260510053005 55 286 0.0 0.0 0.00 0.16 0.00 75 992.0
20260510052505 55 276 0.0 0.0 0.00 0.16 0.00 75 992.0
20260510052005 55 276 0.0 0.0 0.00 0.16 0.00 74 992.0
20260510051504 55 276 0.0 0.0 0.00 0.16 0.00 74 992.0
20260510051005 55 276 0.0 0.0 0.00 0.16 0.00 74 992.0
20260510050504 55 277 0.0 0.0 0.00 0.16 0.00 73 992.0
20260510050005 55 313 0.0 1.7 0.00 0.16 0.00 72 992.0
20260510045505 56 81 0.0 1.7 0.00 0.16 0.00 71 992.0
20260510045005 56 280 0.0 2.6 0.00 0.16 0.00 71 992.0
20260510044505 56 325 0.0 0.0 0.00 0.16 0.00 71 992.0
20260510044005 56 325 0.0 0.0 0.00 0.16 0.00 72 991.0
20260510043504 56 325 0.0 0.0 0.00 0.16 0.00 73 991.0
20260510043005 56 325 0.0 0.0 0.00 0.16 0.00 74 991.0
20260510042505 56 326 0.0 0.0 0.00 0.16 0.00 75 991.0
20260510042005 56 326 0.0 0.0 0.00 0.16 0.00 77 991.0
20260510041505 56 326 0.0 0.0 0.00 0.16 0.00 79 991.0
20260510041005 56 326 0.0 0.0 0.00 0.16 0.00 81 991.0
20260510040505 56 325 0.0 0.0 0.00 0.16 0.00 81 991.0
20260510040004 56 325 0.0 0.0 0.00 0.16 0.00 81 991.0
20260510035504 56 325 0.0 0.0 0.00 0.16 0.00 82 991.0
20260510035005 56 326 0.0 0.0 0.00 0.16 0.00 82 991.0
20260510034504 56 325 0.0 0.0 0.00 0.16 0.00 82 991.0
20260510034005 56 326 0.0 0.0 0.00 0.16 0.00 82 991.0
20260510033504 56 326 0.0 0.0 0.00 0.16 0.00 82 991.0
20260510033005 56 325 0.0 0.0 0.00 0.16 0.00 83 991.0
20260510032505 56 325 0.0 0.0 0.00 0.16 0.00 83 991.0
20260510032005 56 325 0.0 0.0 0.00 0.16 0.00 83 991.0
20260510031505 56 326 0.0 0.0 0.00 0.16 0.00 83 991.0
20260510031005 56 325 0.0 2.6 0.00 0.16 0.00 83 991.0
20260510030505 56 326 0.0 2.6 0.00 0.16 0.00 84 991.0
20260510030004 56 326 0.0 0.0 0.00 0.16 0.00 84 991.0
20260510025504 57 327 0.0 0.0 0.00 0.16 0.00 84 991.0
20260510025005 57 328 0.0 0.0 0.00 0.16 0.00 84 991.0
20260510024504 57 328 0.0 0.0 0.00 0.16 0.00 84 991.0
20260510024004 57 326 0.0 0.0 0.00 0.16 0.00 84 991.0
20260510023504 57 326 0.0 0.0 0.00 0.16 0.00 84 991.0
20260510023004 57 327 0.0 0.0 0.00 0.16 0.00 84 991.0
20260510022505 58 327 0.0 0.0 0.00 0.16 0.00 84 991.0
20260510022005 58 327 0.0 0.0 0.00 0.16 0.00 84 991.0
20260510021505 58 327 0.0 0.0 0.00 0.16 0.00 84 991.0
20260510021005 58 327 0.0 0.0 0.00 0.16 0.00 84 991.0
20260510020505 58 327 0.0 0.0 0.00 0.16 0.00 85 991.0
20260510020005 58 326 0.0 0.0 0.00 0.16 0.00 85 991.0
20260510015505 58 327 0.0 0.0 0.00 0.16 0.00 85 991.0
20260510015005 58 327 0.0 0.0 0.00 0.16 0.00 85 991.0
20260510014505 58 327 0.0 0.0 0.00 0.16 0.00 86 991.0
20260510014004 58 327 0.0 0.0 0.00 0.16 0.00 86 991.0
20260510013505 58 327 0.0 0.0 0.00 0.16 0.00 86 991.0
20260510013005 57 327 0.0 0.0 0.00 0.16 0.00 86 991.0
20260510012505 57 327 0.0 0.0 0.00 0.16 0.00 86 992.0
20260510012005 58 327 0.0 0.0 0.00 0.16 0.00 86 992.0
20260510011505 58 327 0.0 0.0 0.00 0.16 0.00 86 992.0
20260510011004 58 326 0.0 0.0 0.00 0.16 0.00 86 992.0
20260510010505 58 327 0.0 0.0 0.00 0.16 0.00 86 992.0
20260510010005 57 327 0.0 0.0 0.00 0.16 0.00 85 992.0
20260510005504 58 327 0.0 0.0 0.00 0.16 0.00 85 992.0
20260510005004 58 327 0.0 0.0 0.00 0.16 0.00 85 992.0
20260510004504 58 326 0.0 0.0 0.00 0.16 0.00 84 992.0
20260510004004 58 327 0.0 0.0 0.00 0.16 0.00 84 992.0
20260510003505 58 327 0.0 0.0 0.00 0.16 0.00 84 992.0
20260510003005 58 327 0.0 0.0 0.00 0.16 0.00 84 992.0
20260510002505 58 326 0.0 0.0 0.00 0.16 0.00 85 992.0
20260510002004 59 326 0.0 0.0 0.00 0.16 0.00 85 992.0
20260510001504 59 327 0.0 0.0 0.00 0.16 0.00 85 992.0
20260510001005 59 327 0.0 0.0 0.00 0.16 0.00 85 992.0
20260510000504 58 327 0.0 0.0 0.00 0.16 0.00 84 992.0
20260510000005 58 326 0.0 0.0 0.00 0.16 0.00 84 992.0
20260509235505 58 327 0.0 0.0 0.00 0.16 0.00 84 992.0
20260509235005 58 326 0.0 0.0 0.00 0.16 0.00 84 992.0
20260509234505 58 327 0.0 0.0 0.00 0.16 0.00 83 992.0
20260509234005 58 326 0.0 0.0 0.00 0.16 0.00 83 992.0
20260509233505 59 327 0.0 0.0 0.00 0.16 0.00 83 992.0
20260509233005 59 327 0.0 0.0 0.00 0.16 0.00 84 992.0
20260509232505 59 326 0.0 0.0 0.00 0.16 0.00 84 992.0
20260509232004 58 328 0.0 0.0 0.00 0.16 0.00 84 992.0
20260509231505 58 326 0.0 0.0 0.00 0.16 0.00 84 992.0
20260509231005 58 327 0.0 0.0 0.00 0.16 0.00 84 992.0
20260509230504 58 326 0.0 0.0 0.00 0.16 0.00 84 992.0
20260509230004 58 327 0.0 0.0 0.00 0.16 0.00 84 992.0
20260509225505 58 326 0.0 0.0 0.00 0.16 0.00 84 992.0
20260509225004 58 326 0.0 0.0 0.00 0.16 0.00 84 992.0
20260509224504 58 327 0.0 0.0 0.00 0.16 0.00 84 992.0
20260509224005 58 327 0.0 0.0 0.00 0.16 0.00 84 992.0
20260509223504 58 327 0.0 0.0 0.00 0.16 0.00 84 992.0
20260509223004 59 326 0.0 0.0 0.00 0.16 0.00 84 992.0
20260509222505 59 327 0.0 0.0 0.00 0.16 0.00 84 992.0
20260509222004 59 327 0.0 0.0 0.00 0.16 0.00 84 992.0
20260509221504 59 327 0.0 0.0 0.00 0.16 0.00 84 992.0
20260509221004 59 326 0.0 0.0 0.00 0.16 0.00 84 992.0
20260509220504 59 327 0.0 0.0 0.00 0.16 0.00 85 992.0
20260509220004 59 327 0.0 0.0 0.00 0.16 0.00 85 992.0
20260509215505 59 327 0.0 0.0 0.00 0.16 0.16 85 992.0
20260509215004 59 326 0.0 0.0 0.00 0.16 0.16 85 992.0
20260509214504 59 326 0.0 0.0 0.00 0.16 0.16 85 992.0
20260509214005 59 326 0.0 0.0 0.00 0.16 0.16 86 992.0
20260509213504 60 327 0.0 0.0 0.00 0.16 0.16 86 992.0
20260509213005 60 327 0.0 0.0 0.00 0.16 0.16 86 992.0
20260509212504 60 327 0.0 0.0 0.00 0.16 0.16 86 992.0
20260509212004 60 327 0.0 0.0 0.00 0.16 0.16 86 992.0
20260509211504 60 327 0.0 0.0 0.00 0.16 0.16 86 992.0
20260509211005 60 327 0.0 0.0 0.00 0.16 0.16 86 991.0
20260509210504 60 327 0.0 0.0 0.00 0.16 0.16 85 991.0
20260509210004 60 327 0.0 0.0 0.00 0.16 0.16 85 991.0
20260509205505 60 327 0.0 0.0 0.00 0.16 0.16 85 991.0